DateTimeUTC,F1_A11,F1_S11,BsB_S11,BsG_S11,BsR_S11,BbsB_S11,BbsG_S11,BbsR_S11,BaB_A11,BaG_A11,BaR_A11,Tu_S11,T_S11,Uu_S11,U_S11,P_S11,T1_A11
2021-07-31T19:00:00Z,00000200,20000000,,,,,,,0000.20,-000.36,0000.06,20.0,26.6,10.7,07.2,0679.8,31.1
2021-07-31T19:01:00Z,00000200,20000000,,,,,,,-000.12,-000.08,-000.00,20.0,26.6,10.7,07.2,0679.8,31.1
2021-07-31T19:02:00Z,00000200,20000000,,,,,,,-000.22,0000.41,-000.33,20.0,26.6,10.7,07.2,0679.8,31.1
2021-07-31T19:03:00Z,00000200,60000000,,,,,,,0000.95,-000.01,0000.57,20.0,26.6,10.7,07.2,0679.8,31.1
2021-07-31T19:04:00Z,00000200,40000000,0003.89,0002.82,0001.75,0000.77,0000.57,0000.49,0000.77,0001.13,0000.64,20.1,26.5,10.7,07.3,0680.7,31.1
2021-07-31T19:05:00Z,00000200,00000000,0004.38,0003.00,0001.69,0000.28,0000.11,0000.17,0001.20,0000.94,0000.78,20.2,26.4,10.5,07.2,0680.8,31.1
2021-07-31T19:06:00Z,00000200,00000000,0003.68,0002.99,0001.78,0000.79,0000.77,0000.32,0001.05,0000.97,0000.69,20.2,26.4,10.8,07.4,0680.8,31.1
2021-07-31T19:07:00Z,00000200,00000000,0003.34,0002.66,0001.95,0000.76,0000.33,0000.35,0000.71,0000.78,0000.63,20.1,26.4,10.8,07.4,0680.8,31.1
2021-07-31T19:08:00Z,00000200,00000000,0003.11,0003.17,0001.65,0000.25,0000.57,0000.40,0000.67,0000.84,0000.70,20.1,26.4,10.8,07.4,0680.8,31.1
2021-07-31T19:09:00Z,00000200,00000000,0003.16,0002.58,0001.64,0000.66,0000.58,0000.43,0000.99,0000.38,0000.24,20.1,26.4,10.6,07.3,0680.8,31.1
2021-07-31T19:10:00Z,00000200,00000000,0003.77,0002.41,0001.01,0000.82,0000.25,0000.13,0000.80,0001.13,0000.64,20.1,26.4,10.5,07.2,0680.8,31.1
2021-07-31T19:11:00Z,00000200,00000000,0003.19,0002.58,0001.22,0000.51,0000.83,0000.17,0001.08,0000.80,0000.76,20.1,26.4,10.6,07.2,0680.8,31.1
2021-07-31T19:12:00Z,00000200,00000000,0004.07,0002.58,0001.39,0000.55,0000.60,0000.07,0000.98,0000.80,0000.96,20.1,26.4,10.5,07.2,0680.9,31.1
2021-07-31T19:13:00Z,00000200,00000000,0003.93,0002.57,0001.55,0000.31,0000.24,0000.36,0000.83,0000.87,0000.51,20.1,26.4,10.5,07.2,0680.9,31.1
2021-07-31T19:14:00Z,00000200,00000000,0003.94,0002.47,0001.58,0000.30,0000.39,0000.28,0001.04,0000.91,0000.29,20.1,26.3,10.6,07.3,0680.8,31.1
2021-07-31T19:15:00Z,00000200,00000000,0003.70,0002.28,0001.61,0000.52,0000.47,0000.17,0000.67,0000.80,0000.77,20.1,26.4,10.6,07.2,0680.8,31.1
2021-07-31T19:16:00Z,00000200,00000000,0003.93,0002.26,0001.54,0000.40,0000.37,-000.08,0000.89,0000.51,0000.31,20.1,26.3,10.6,07.2,0680.9,31.1
2021-07-31T19:17:00Z,00000200,00000000,0003.17,0002.08,0001.61,0000.73,0000.51,0000.31,0000.65,0000.81,0000.82,20.1,26.3,10.6,07.3,0680.8,31.1
2021-07-31T19:18:00Z,00000200,00000000,0002.39,0002.31,0001.07,0000.35,0000.27,0000.21,0001.06,0000.75,0000.36,20.1,26.3,10.7,07.3,0680.9,31.1
2021-07-31T19:19:00Z,00000200,00000000,0003.45,0002.44,0001.45,0000.37,0000.35,0000.60,0000.85,0000.85,0000.86,20.1,26.3,10.7,07.3,0680.9,31.1
2021-07-31T19:20:00Z,00000200,00000000,0002.60,0002.24,0000.98,0000.25,0000.37,0000.39,0000.68,0000.45,0000.19,20.1,26.3,10.6,07.3,0680.9,31.1
2021-07-31T19:21:00Z,00000200,00000000,0003.82,0002.19,0001.31,0000.43,0000.38,0000.29,0000.75,0000.80,0000.90,20.1,26.3,10.3,07.1,0680.9,31.1
2021-07-31T19:22:00Z,00000200,00000000,0003.60,0002.07,0001.46,0000.76,0000.20,0000.34,0000.92,0000.94,0000.65,20.1,26.3,10.5,07.2,0680.9,31.1
2021-07-31T19:23:00Z,00000200,00000000,0003.21,0002.30,0001.13,0000.28,0000.52,-000.07,0000.77,0000.82,0000.34,20.1,26.3,10.5,07.2,0680.9,31.1
2021-07-31T19:24:00Z,00000200,00000000,0002.77,0001.78,0001.56,0000.47,0000.01,0000.43,0000.53,0000.44,0000.32,20.1,26.3,10.5,07.2,0680.8,31.1
2021-07-31T19:25:00Z,00000200,00000000,0002.87,0001.93,0001.43,0000.45,0000.58,0000.04,0000.72,0000.75,0000.72,20.1,26.3,10.4,07.2,0680.9,31.1
2021-07-31T19:26:00Z,00000200,00000000,0002.62,0001.83,0000.96,0000.74,0000.40,0000.35,0000.90,0000.42,0000.02,20.1,26.3,10.5,07.2,0680.9,31.1
2021-07-31T19:27:00Z,00000200,00000000,0002.46,0001.70,0000.63,0000.04,0000.26,0000.29,0000.48,0000.19,0000.63,20.1,26.3,10.4,07.1,0680.9,31.1
2021-07-31T19:28:00Z,00000200,00000000,0002.53,0001.69,0001.01,0000.57,0000.53,0000.11,0000.44,0000.66,0000.25,20.1,26.3,10.3,07.1,0680.9,31.1
2021-07-31T19:29:00Z,00000200,00000000,0002.74,0002.22,0000.90,0000.18,0000.13,0000.34,0000.97,0001.09,0000.54,20.1,26.3,10.4,07.1,0680.9,31.1
2021-07-31T19:30:00Z,00000200,00000000,0002.65,0001.91,0000.88,0000.86,0000.39,0000.17,0000.47,0000.17,0000.34,20.0,26.3,10.4,07.1,0680.9,31.1
2021-07-31T19:31:00Z,00000200,00000000,0002.07,0001.45,0000.74,0000.52,0000.26,0000.07,0000.40,0000.43,0000.51,20.1,26.3,10.4,07.2,0680.9,31.1
2021-07-31T19:32:00Z,00000200,00000000,0002.15,0001.69,0000.93,0000.04,0000.41,-000.01,0000.69,0000.68,0000.47,20.0,26.3,10.3,07.1,0680.9,31.1
2021-07-31T19:33:00Z,00000200,00000000,0002.06,0001.23,0000.96,0000.44,0000.23,0000.08,0000.74,0000.34,0000.53,20.0,26.3,10.3,07.1,0680.9,31.1
2021-07-31T19:34:00Z,00000200,00000000,0001.96,0001.69,0000.97,0000.46,0000.26,0000.24,0000.38,0001.11,0000.37,20.0,26.3,10.3,07.1,0680.9,31.1
2021-07-31T19:35:00Z,00000200,00000000,0002.36,0001.24,0001.11,0000.29,0000.38,0000.57,0000.64,0000.27,0000.61,20.0,26.3,10.4,07.1,0680.9,31.1
2021-07-31T19:36:00Z,00000200,00000000,0002.31,0001.21,0000.84,0000.21,0000.40,-000.02,0000.70,0000.29,0000.47,20.0,26.3,10.4,07.1,0680.9,31.1
2021-07-31T19:37:00Z,00000200,00000000,0001.64,0001.65,0000.91,0000.22,0000.45,0000.21,0000.37,0000.80,0000.15,20.0,26.3,10.4,07.2,0680.9,31.1
2021-07-31T19:38:00Z,00000200,00000000,0002.10,0001.59,0000.76,0000.53,0000.35,0000.33,0000.67,0000.67,0000.16,20.0,26.2,10.3,07.1,0680.9,31.1
2021-07-31T19:39:00Z,00000200,00000000,0001.89,0001.50,0000.84,0000.71,0000.56,0000.58,0000.62,0000.48,0000.59,20.0,26.2,10.3,07.1,0680.9,31.1
2021-07-31T19:40:00Z,00000200,00000000,0002.12,0001.61,0000.73,0000.23,0000.42,0000.19,0000.50,0000.03,0000.22,20.0,26.2,10.3,07.1,0680.9,31.1
2021-07-31T19:41:00Z,00000200,00000000,0001.28,0001.46,0000.75,0000.75,0000.13,0000.26,0000.86,0001.05,0000.59,20.0,26.2,10.4,07.2,0680.9,31.1
2021-07-31T19:42:00Z,00000200,00000000,0001.48,0001.24,0000.95,0001.08,0000.25,0000.08,0000.24,0000.15,0000.05,20.0,26.2,10.3,07.1,0680.9,31.1
2021-07-31T19:43:00Z,00000200,00000000,0001.68,0001.27,0000.91,0000.03,0000.37,0000.21,0000.53,0000.37,0000.33,20.0,26.2,10.3,07.0,0680.9,31.1
2021-07-31T19:44:00Z,00000200,00000000,0002.12,0001.18,0000.97,0000.62,0000.30,0000.46,0000.39,0000.55,0000.71,20.0,26.2,10.2,07.0,0680.9,31.1
2021-07-31T19:45:00Z,00000200,00000000,0001.47,0001.35,0000.55,0000.47,0000.36,0000.14,0000.27,0000.48,0000.09,20.0,26.2,10.3,07.1,0680.9,31.1
2021-07-31T19:46:00Z,00000200,00000000,0001.06,0001.04,0000.53,0000.37,0000.36,0000.30,0000.92,0000.31,-000.10,20.0,26.2,10.2,07.0,0680.8,31.1
2021-07-31T19:47:00Z,00000200,00000000,0001.88,0000.81,0000.27,0000.84,-000.02,0000.25,0000.13,0000.42,0000.62,20.0,26.2,10.2,07.0,0680.8,31.1
2021-07-31T19:48:00Z,00000200,00000000,0001.01,0000.63,0000.37,-000.40,0000.06,0000.14,0000.29,-000.07,0000.13,20.0,26.2,10.1,06.9,0680.8,31.1
2021-07-31T19:49:00Z,00000200,00000000,0000.19,0000.75,0000.46,0000.82,0000.32,0000.28,0000.06,0000.20,0000.15,20.0,26.2,10.0,06.9,0680.9,31.1
2021-07-31T19:50:00Z,00000200,00000000,0000.97,0000.64,0000.13,0000.34,0000.17,0000.38,0000.27,0000.25,-000.25,20.0,26.2,10.1,06.9,0680.9,31.1
2021-07-31T19:51:00Z,00000200,00000000,0001.20,0000.76,0000.49,0000.48,0000.48,0000.22,0000.41,0000.62,0000.38,20.0,26.2,10.1,06.9,0680.9,31.1
2021-07-31T19:52:00Z,00000200,00000000,0001.73,0001.08,0000.73,0000.14,0000.29,0000.21,0000.55,0000.10,0000.83,20.0,26.2,10.2,07.0,0680.9,31.1
2021-07-31T19:53:00Z,00000200,00000000,0001.62,0000.83,0000.56,0000.71,0000.47,0000.45,0000.03,0000.37,-000.31,20.0,26.2,10.2,07.0,0680.9,31.1
2021-07-31T19:54:00Z,00000200,00000000,0002.11,0000.37,0000.21,-000.17,0000.23,0000.18,0000.19,0000.13,0000.21,19.9,26.2,10.0,06.9,0680.8,31.1
2021-07-31T19:55:00Z,00000200,00000000,0001.10,0000.02,0000.30,0000.48,0000.22,0000.16,0000.35,0000.10,0000.22,19.9,26.2,10.0,06.9,0680.9,31.1
2021-07-31T19:56:00Z,00000200,00000000,0000.89,0000.85,0000.45,0000.20,0000.27,0000.14,0000.53,0000.46,0000.36,19.9,26.2,10.1,06.9,0680.9,31.1
2021-07-31T19:57:00Z,00000200,40000000,,,,,,,0000.14,0000.09,0000.17,19.9,26.2,10.0,06.8,0680.8,31.1
2021-07-31T19:58:00Z,00000200,60000000,,,,,,,-000.12,-000.18,-000.36,19.7,26.3,10.2,06.8,0679.8,31.1
2021-07-31T19:59:00Z,00000200,20000000,,,,,,,-000.57,0000.12,0000.20,19.7,26.4,10.2,06.8,0679.8,31.1
